Weather past 2 weeks in Willemstad, Curaçao

Now
88 °F

Scattered clouds.


Feels Like: 98 °F
Forecast: 79 / 85 °F
Wind: 9 mph from East

Location: Hato Airport - Curacao

Current Time: Dec 18, 2014 at 12:34:27 PM

Latest Report: Dec 18, 2014 at 12:00 PM


Visibility: N/A

Pressure: 29.98 "Hg

Humidity: 66%

Dew point: 75 °F

Location of WillemstadLocation

Historic Weather in Willemstad — Graph

°F

Willemstad temperature yesterday

Maximum temperature yesterday: 88 °F (at 11:00 AM)
Minimum temperature yesterday: 81 °F (at 12:00 AM)
Average temperature yesterday: 83 °F

Past Weeks' High & Low Weather Summary

 TemperatureHumidityPressure
High90 °F (Dec 10, 1:00 PM)94% (Dec 8, 6:00 AM)30.01 "Hg (Dec 8, 6:00 AM)
Low75 °F (Dec 15, 7:00 AM)55% (Dec 16, 12:00 PM)29.74 "Hg (Dec 3, 4:00 PM)
Average83 °F77%29.88 "Hg
* Reported Dec 3 11:00 AM — Dec 18 11:00 AM, Willemstad, Weather by CustomWeather, © 2014

Note: Actual official high and low records may vary slightly from our data, if they occured in-between our weather recording intervals... More about our weather records

Advertising

Willemstad weather history for previous 24 hours

 ConditionsComfort  
Time TempWeatherWind HumidityBarometerVisibility
11:00 AM
Dec 18
88 °FPassing clouds.9 mph62%30.01 "HgN/A
10:00 AM86 °FPassing clouds.10 mph66%29.98 "HgN/A
9:00 AM84 °FPassing clouds.12 mph70%29.98 "HgN/A
8:00 AM82 °FPassing clouds.12 mph74%29.95 "HgN/A
7:00 AM81 °FPassing clouds.10 mph74%29.95 "HgN/A
6:00 AM81 °FPassing clouds.12 mph79%29.92 "HgN/A
3:00 AM81 °FPassing clouds.10 mph84%29.92 "HgN/A
2:00 AM81 °FPassing clouds.12 mph84%29.92 "HgN/A
1:00 AM81 °FPassing clouds.12 mph84%29.95 "HgN/A
12:00 AM82 °FPassing clouds.12 mph79%29.98 "HgN/A
11:00 PM
Dec 17
82 °FPassing clouds.12 mph79%29.98 "HgN/A
10:00 PM82 °FPassing clouds.12 mph79%N/AN/A
9:00 PM82 °FPassing clouds.13 mph79%29.95 "HgN/A
8:00 PM82 °FPassing clouds.13 mph79%29.92 "HgN/A
7:00 PM82 °FPassing clouds.13 mph79%29.92 "HgN/A
6:00 PM82 °FScattered clouds.9 mph79%29.89 "HgN/A
5:00 PM84 °FScattered clouds.12 mph74%29.89 "HgN/A
4:00 PM86 °FScattered clouds.13 mph70%29.89 "HgN/A
3:00 PM86 °FScattered clouds.13 mph70%29.89 "HgN/A
2:00 PM86 °FScattered clouds.14 mph70%29.92 "HgN/A
1:00 PM86 °FScattered clouds.13 mph70%29.95 "HgN/A
12:00 PM88 °FScattered clouds.12 mph66%29.98 "HgN/A
Weather by CustomWeather, © 2014

See weather overviewHow to use our weather pages